Location: Unspecified
(0.0000°N, 0.0000°E)
Time: 04:48:27
(UTC-01:00)

OTV 5 (USA 277) - Visible Passes

Search period start: 19 January 2018 00:00
Search period end: 29 January 2018 00:00
Orbit: 404 x 417 km, 43.0° (Epoch: 07 September)

Date Brightness Start Highest point End Pass type
(mag) Time Alt. Az. Time Alt. Az. Time Alt. Az.
19 Jan ? 04:06:19 24° NNW 04:08:01 57° NE 04:11:15 10° SE visible
20 Jan ? 03:18:08 21° E 03:18:08 21° E 03:19:47 10° ESE visible
21 Jan ? 04:02:44 25° WSW 04:03:06 26° SW 04:05:56 10° SSE visible
22 Jan ? 03:14:30 16° SSE 03:14:30 16° SSE 03:15:19 10° SE visible
